This is the latest recevied weather packets stored in our database for station/object KI4HRG. If no packets are shown the sender has not sent any weather packets the latest 10 day(s).
| Time | Temp. | Humidity | Pressure | Rain* | Wind** | Luminosity | Snow |
|---|---|---|---|---|---|---|---|
| 1788133808 | 31.11° C | 63% | 1017.6 hPa | 0 mm | - | 11 W/m² | - |
| 1788133503 | 31.11° C | 63% | 1017.7 hPa | 0 mm | - | 15 W/m² | - |
| 1788133198 | 31.11° C | 63% | 1017.7 hPa | 0 mm | - | 19 W/m² | - |
| 1788132893 | 31.11° C | 62% | 1017.6 hPa | 0 mm | - | 21 W/m² | - |
| 1788132589 | 31.67° C | 62% | 1017.7 hPa | 0 mm | - | 23 W/m² | - |
| 1788132284 | 31.67° C | 61% | 1017.7 hPa | 0 mm | - | 26 W/m² | - |
| 1788131981 | 31.67° C | 61% | 1017.6 hPa | 0 mm | - | 27 W/m² | - |
| 1788131676 | 31.67° C | 62% | 1017.7 hPa | 0 mm | - | 30 W/m² | - |
| 1788131375 | 31.67° C | 61% | 1017.4 hPa | 0 mm | - | 33 W/m² | - |
| 1788131070 | 31.67° C | 61% | 1017.5 hPa | 0 mm | - | 34 W/m² | - |
| 1788130769 | 31.67° C | 61% | 1017.4 hPa | 0 mm | - | 37 W/m² | - |
| 1788130465 | 31.67° C | 62% | 1017.6 hPa | 0 mm | - | 36 W/m² | - |
| 1788130160 | 31.67° C | 62% | 1017.4 hPa | 0 mm | - | 40 W/m² | - |
| 1788129859 | 31.67° C | 61% | 1017.1 hPa | 0 mm | - | 46 W/m² | - |
| 1788129556 | 32.22° C | 61% | 1017.4 hPa | 0 mm | - | 44 W/m² | - |
| 1788129252 | 32.22° C | 61% | 1017.2 hPa | 0 mm | - | 47 W/m² | - |
| 1788128951 | 32.22° C | 61% | 1017.4 hPa | 0 mm | - | 49 W/m² | - |
| 1788128647 | 32.78° C | 59% | 1017.4 hPa | 0 mm | - | 54 W/m² | - |
| 1788128342 | 32.78° C | 60% | 1017.3 hPa | 0 mm | - | 58 W/m² | - |
| 1788128038 | 32.78° C | 60% | 1017.2 hPa | 0 mm | - | 59 W/m² | - |
| 1788127733 | 32.22° C | 59% | 1017.3 hPa | 0 mm | - | 49 W/m² | - |
| 1788127433 | 32.22° C | 60% | 1017.2 hPa | 0 mm | - | 48 W/m² | - |
| 1788127130 | 32.78° C | 59% | 1017.3 hPa | 0 mm | - | 46 W/m² | - |
| 1788126825 | 32.78° C | 57% | 1017.3 hPa | 0 mm | - | 52 W/m² | - |
| 1788126520 | 32.78° C | 57% | 1017.3 hPa | 0 mm | - | 52 W/m² | - |
* Rain latest hour (hover to see other rain measurements)
** Current wind speed in m/s (hover to see current wind gust speed)